DECAYED

STARLINK-4547, 53573 (Decayed)

Orbit data source: Space-Track

STARLINK-4547, 53573 was a payload satellite owned by SpaceX/Seattle (US) in LEO that was launched on Fri, 19 Aug 2022 UTC via an FALCON 9 launch vehicle from the Air Force Eastern Test Range (AFETR). Payload-class satellites include a variety of spacecraft equipped with specific instruments for various scientific and technological missions. These include communications satellites like Starlink; space stations such as the ISS; scientific satellites like the Hubble; Earth observation satellites from companies like Planet Labs, Umbra, and HawkEye 360; GPS; miniature CubeSats for education and research; and military/defense satellites.

Not visible in the next 10 days
Identifier
53573, 2022-101AY
Orbit
Decayed
Country
Flag of USUS
Related business
Manufacturer
SpaceX/Seattle
Mission
Decayed Commercial Communications
Bus & Motor
STARLINK, Unknown motor
Mass
300 kg wet, ~290 kg dry
Launch date (UTC)
2022-08-19 (4 years ago)
Launch vehicle
FALCON 9
Launch site
Air Force Eastern Test Range (AFETR)
Object type
Payload
Rocket body
Debris
Shape & HBR
Box + 1 Pan, 10.1 m
Radar Cross Section
13.562 m², Large (>1 m²)

Expand to show TLE details & history
Last TLE update: 8 months ago

TLE from 8 months ago
0 STARLINK-4547
1 53573U 22101AY  25304.35777245  .12899136  12510-4  20143-3 0  9998
2 53573  53.1970 251.5195 0004752 214.8925 145.1816 16.48176362177248
Epoch: 2025-10-31T08:35Z
TLE epoch observation values (Epoch: 2025-10-31T08:35:11.539Z)
Latitude
-0.00005°
Longitude
82.81803°
Altitude
147.636 km
Speed
7.817 km/s
True Right ascension
16h 46m 04s
True Declination
0° 00' 00"
Sunlit
Object was in daylight at epoch
Visualization orbit readout
Latitude
Unknown
Longitude
Unknown
Altitude
Unknown
Speed
Unknown
Apparent Right ascension
Unknown
Apparent Declination
Unknown
Sunlit
N/A
Visualization observer readout
Local Sidereal Time
23:07:07
Azimuth
Unknown
Elevation
Unknown
Doppler factor
Unknown
Orbital elements
Apogee altitude
147.504 km
Perigee altitude
141.305 km
Semi-major axis
6,522.542 km
Eccentricity
0.00048
Inclination
53.197°
RAAN
251.5195°
Arg. of periapsis
214.8925°
True anomaly
145.21268°
Mean anomaly
145.1816°
Eccentric anomaly
145.19714°
Mean motion
4.1202 °/min
Orbital period
87.37 mins
BSTAR
0.00020143
Loading maneuver chart data...
Computing Atmospheric mass density...
Loading historical data...
Loading historical data...
Loading historical data...
Loading historical data...
Loading historical data...
Loading historical data...
Loading historical data...

Documentation

Showing up to 5 results
|